Regional Weather Roundup
Issued by NWS Little Rock, AR

Home | Current Version | Previous Version | Text Only | Print | Product List | Glossary Off
Versions: 1 2 3 4 5 6 7 8 9 10 11 12 13 14 15 16 17 18 19 20 21 22 23 24 25 26 27 28 29 30 31 32 33 34 35 36 37 38 39 40 41 42 43 44 45 46 47 48 49 50

901
ASUS44 KLZK 250805
RWRLZK

WEATHER ROUNDUP FOR ARKANSAS
NATIONAL WEATHER SERVICE LITTLE ROCK AR
300 AM CDT TUE APR 25 2017

NOTE: "FAIR" INDICATES FEW OR NO CLOUDS BELOW 12,000 FEET WITH NO
SIGNIFICANT WEATHER AND/OR OBSTRUCTIONS TO VISIBILITY.

ARZ001-003-010-029-250900-
NORTHWEST ARKANSAS

CITY           SKY/WX    TMP DP  RH WIND       PRES   REMARKS
FAYETTEVILLE   CLEAR     57  44  62 S5        29.64F
FORT SMITH     CLEAR     58  44  60 N3        29.64F
HARRISON       CLEAR     51  42  71 E7        29.67F
BENTONVILLE    CLEAR     54  43  66 SE3       29.64F
ROGERS         CLEAR     54  47  77 E7        29.65F
SILOAM SPGS    CLEAR     54  39  58 SE7       29.62F
HIGHFILL       CLEAR     52  44  74 SE6       29.63F
$$

ARZ004-005-016-250900-
NORTH CENTRAL ARKANSAS

CITY           SKY/WX    TMP DP  RH WIND       PRES   REMARKS
BATESVILLE     CLEAR    N/A N/A N/A CALM      29.71F
FLIPPIN        CLEAR    N/A N/A N/A E3        29.65F
MTN HOME       PTCLDY    54  43  66 S6        29.67F
$$

ARZ040-041-250900-
WEST CENTRAL ARKANSAS

CITY           SKY/WX    TMP DP  RH WIND       PRES   REMARKS
MENA           CLEAR     68  46  45 S5        29.68F
MOUNT IDA      CLEAR     66  41  40 VRB3      29.66F
$$

ARZ009-017-025-026-028-250900-
NORTHEAST ARKANSAS

CITY           SKY/WX    TMP DP  RH WIND       PRES   REMARKS
JONESBORO      CLEAR     52  52 100 CALM      29.74F
NEWPORT        CLEAR     54  51  90 S5        29.73F
WALNUT RIDGE   CLEAR     55  48  76 SE7       29.72F
BLYTHEVILLE    CLEAR     57  55  93 S8        29.75F
$$

ARZ022-023-033-042-044-250900-
CENTRAL ARKANSAS

CITY           SKY/WX    TMP DP  RH WIND       PRES   REMARKS
LITTLE ROCK    CLEAR     53  48  83 CALM      29.72F
N LITTLE ROCK    N/A     56  46  69 CALM      29.72F
JACKSONVILLE   PTCLDY    49  48  96 CALM      29.71F
CONWAY           N/A     52  48  87 CALM      29.69F
SEARCY         CLEAR     49  49 100 CALM      29.74F
HOT SPRINGS    CLEAR     54  47  77 E6        29.70F
RUSSELLVILLE   PTCLDY    58  44  60 CALM      29.68F
$$

ARZ036-250900-
EAST ARKANSAS

CITY           SKY/WX    TMP DP  RH WIND       PRES   REMARKS
WEST MEMPHIS   CLEAR     55  55 100 S3        29.74F
$$

ARZ050-053-066-070-073-250900-
SOUTHWEST ARKANSAS

CITY           SKY/WX    TMP DP  RH WIND       PRES   REMARKS
ARKADELPHIA    FAIR      52  51  97 CALM      29.72F
CAMDEN         PTCLDY    50  46  87 CALM      29.72S
TEXARKANA      CLEAR     60  48  64 S8        29.70S
EL DORADO      CLEAR     51  49  92 CALM      29.72F
DE QUEEN       CLEAR     51  51 100 CALM      29.67F
$$

ARZ056-057-069-250900-
SOUTHEAST ARKANSAS

CITY           SKY/WX    TMP DP  RH WIND       PRES   REMARKS
PINE BLUFF     CLEAR     53  49  86 CALM      29.73F
STUTTGART      CLEAR     61  43  51 S7        29.74S
MONTICELLO     CLEAR     56  47  71 CALM      29.73F

$$






USA.gov is the U.S. government's official web portal to all federal, state and local government web resources and services.